Location: Newark
(52.4787°S, 179.0532°W)
Time: 23:08:25
(UTC+00:00)

Vanguard 1 - Pass Details

Date: 17 November 2019
Orbit: 652 x 3831 km, 34.2° (Epoch: 05 December)

Event Time Altitude Azimuth Distance (km) Brightness Sun altitude
Rises 10:16:15 0° 325° (NW) 5,538 13.6 -16.2°
Reaches altitude 10° 10:19:55 10° 335° (NNW) 4,944 13.2 -16.4°
Maximum altitude 10:32:50 33° 31° (NNE) 4,471 12.8 -17.0°
Drops below altitude 10° 10:50:51 10° 84° (E) 6,913 14.2 -17.7°
Sets 10:57:14 0° 91° (E) 7,981 14.6 -17.9°
